Regional Weather Roundup
Issued by NWS

Home | Current Version | Previous Version | Text Only | Print | Product List | Glossary On
Versions: 1 2 3 4 5 6 7 8 9 10 11 12 13 14 15 16 17 18 19 20 21 22 23 24 25 26 27 28
000
ASUS45 KBOU 010007
RWRCO

WEATHER ROUNDUP FOR COLORADO
NATIONAL WEATHER SERVICE DENVER/BOULDER CO
600 PM MDT SUN APR 30 2017

NOTE: "FAIR" INDICATES FEW OR NO CLOUDS BELOW 12000 FEET WITH NO
SIGNIFICANT WEATHER AND/OR OBSTRUCTIONS TO VISIBILITY.

COZ001>005-013-030-031-010100-
...NORTHWEST COLORADO...

CITY           SKY/WX    TMP DP  RH WIND       PRES   REMARKS
CRAIG          CLOUDY    49  27  42 SW21G29   30.02S
HAYDEN         CLOUDY    48  25  40 W24G30    30.01S
MEEKER         PTSUNNY   53  24  32 W6        30.04S
MOUNT WERNER   NOT AVBL
STEAMBOAT SPGS CLOUDY    48  23  38 W17G26    30.00F
WALDEN           N/A     46  18  31 W15G24    30.03R
$$

COZ006>008-011-010100-
...WEST CENTRAL VALLEYS...

CITY           SKY/WX    TMP DP  RH WIND       PRES   REMARKS
GRAND JUNCTION CLOUDY    63  17  17 SW9G20    29.99F
MONTROSE       FAIR      58  17  20 NW13      30.05S
EAGLE          PTSUNNY   52  19  28 NW8       30.05S
RIFLE          CLOUDY    58  19  22 W6        30.01S
DELTA          PTSUNNY   63  17  16 W17G25    30.01R
NUCLA          PTSUNNY   59  12  15 N10       30.06S
$$

COZ017>023-064>068-010100-
...SOUTHWEST COLORADO...

CITY           SKY/WX    TMP DP  RH WIND       PRES   REMARKS
DURANGO        FAIR      58  15  18 W26G35    29.97R
CORTEZ         FAIR      61  12  14 NW18      30.02R
PAGOSA SPRINGS FAIR      56   7  13 NW17G25   29.97S
TELLURIDE      FAIR      44  16  32 CALM      30.12S
WOLF CREEK PAS FAIR      32   9  37 NW9       30.17R WCI  24
$$

COZ009-010-012-014-032>034-037-058>063-010100-
...CENTRAL COLORADO...

CITY           SKY/WX    TMP DP  RH WIND       PRES   REMARKS
ASPEN          CLOUDY    45  19  35 NW8       30.05R
BUENA VISTA    FAIR      51  13  22 W22G28    29.97R
COPPER MTN     CLOUDY    28  18  64 NW14G25   30.10S HAZE    WCI  17
BERTHOUD PASS  SNOW      18   7  62 NW39G53   30.01S VSB 1/2 WCI  -4
COTTONWOOD PAS FAIR      41  14  33 W18G32    30.03R
GUNNISON       FAIR      48  19  31 W22G28    30.04R
KREMMLING      FAIR      50  21  32 NW9       30.04S
LEADVILLE      PTSUNNY   35  14  42 NW15G24   30.04R WCI  25
MONARCH PASS   FAIR      28  16  59 W22G28    30.19R WCI  15
SALIDA         FAIR      53  14  21 N12G20    30.02R
SUNLIGHT       CLOUDY    30  18  59 W5        30.18S WCI  25
WILKERSON PASS FAIR      28  14  54 N16G32    30.06R WCI  17
$$

COZ069>075-010100-
...SAN LUIS VALLEY/SANGRE DE CRISTO MOUNTAINS...

CITY           SKY/WX    TMP DP  RH WIND       PRES   REMARKS
ALAMOSA        FAIR      56  11  16 N24G30    29.92R
LA VETA PASS   FAIR      39  18  41 W9        30.10R
SAGUACHE       FAIR      48  12  23 N32G43    29.95R
$$

COZ035-036-038>040-010100-
...NORTHERN COLORADO FRONT RANGE...

CITY           SKY/WX    TMP DP  RH WIND       PRES   REMARKS
DENVER INTL AP FAIR      59  17  19 N31G41    29.82S
DMNS CITY PARK   N/A     57  22  25 W22G29    29.84S
AURORA         MOSUNNY   56  18  22 N26G32    29.85R
FRONT RANGE AP PTSUNNY   59  21  23 NW32G39   29.84S
ERIE MUNI ARPT FAIR      61  21  21 W21G28    29.84R
BOULDER MUN AP FAIR      57  23  26 W22G33    29.86R
CENTENNIAL     PTSUNNY   53  25  33 W12       29.86R
BROOMFIELD     MOSUNNY   61  23  23 W22G35    29.86R
FORT COLLINS   FAIR      61  24  24 NW25G32   29.85R
LONGMONT       FAIR      63  21  20 NW17G26   29.87R
$$

COZ041-046-047-076>085-087-088-010100-
...PIKES PEAK/PALMER DIVIDE AND SOUTHERN FOOTHILLS...

CITY           SKY/WX    TMP DP  RH WIND       PRES   REMARKS
COLO. SPRINGS  FAIR      55  15  20 N28       29.85F
A. F. ACADEMY  FAIR      51  17  26 N21G26    29.87S
SCHRIEVER AFB  FAIR      52  19  27 NW21G33   29.88R
ELLICOTT       FAIR     N/A N/A N/A N28G39    29.84R
FALCON         FAIR      51  19  28 NW16G24   29.90S
FORT CARSON    FAIR      56  18  22 N25G35    29.85S
LIMON          FAIR      53  23  31 N30G40    29.81R
MONUMENT HILL  FAIR      45  23  42 NW9       29.91S
TRINIDAD       FAIR      49  23  36 N6        29.89S
$$

COZ042>045-048>051-090-091-010100-
...NORTHEAST COLORADO...

CITY           SKY/WX    TMP DP  RH WIND       PRES   REMARKS
GREELEY ARPT   FAIR      61  18  18 N32       29.82R
AKRON          FAIR      53  16  23 N32G41    29.79S
BURLINGTON     NOT AVBL
WRAY           NOT AVBL
STERLING       FAIR      55  21  26 N22G35    29.79S
HOLYOKE        FAIR      54  21  28 N24G41    29.77S
FORT MORGAN    FAIR      56  21  25 N23G29    29.81F
$$

COZ086-089-092>099-010100-
...SOUTHEAST COLORADO...

CITY           SKY/WX    TMP DP  RH WIND       PRES   REMARKS
PUEBLO         FAIR      54  30  40 W9        29.84S
LA JUNTA       FAIR      60  28  29 N21G30    29.81R
LAMAR          FAIR      56  24  29 N22G31    29.75R
SPRINGFIELD      N/A     39  31  72 W14       29.80R
$$




USA.gov is the U.S. government's official web portal to all federal, state and local government web resources and services.